Owen Roberts, Cayman Islands

4:41 AM EST on May 24, 2017 (GMT -0500)
Roberts International

Weather History for MWCR - January, 2013

Change the Weather History Date:

Sunday, January 13, 2013

  Actual Average Record
Temperature  
Mean Temperature 80 °F -  
Max Temperature 85 °F 80 °F 86 °F (2002)
Min Temperature 75 °F 73 °F 71 °F (1999)
Cooling Degree Days 15    
Growing Degree Days 30 (Base 50)    
Moisture  
Dew Point 74 °F    
Average Humidity 81    
Maximum Humidity 94    
Minimum Humidity 70    
Precipitation  
Precipitation 0.00 in - - ()
Sea Level Pressure  
Sea Level Pressure 29.98 in    
Wind  
Wind Speed 9 mph ()    
Max Wind Speed 15 mph    
Max Gust Speed -    
Visibility 5.7 miles    
Events      
Averages and records for this station are not official NWS values.
T = Trace of Precipitation, MM = Missing Value Source: Averaged Metar Reports

Daily Weather History Graph

Daily Weather History Graph

Search for Another Location

Airport or City:

Trip Planner

Search our weather history database for the weather conditions in past years. The results will help you decide how hot, cold, wet, or windy it might be!

Date:

Astronomy

Jan. 13, 2013 Rise Set
Actual Time 7:01 AM EST 6:06 PM EST
Civil Twilight 6:38 AM EST 6:30 PM EST
Nautical Twilight 6:11 AM EST 6:57 PM EST
Astronomical Twilight 5:44 AM EST 7:24 PM EST
Moon 8:21 AM EST (1/13) 8:17 PM EST (1/13)
Length of Visible Light 11h 51m
Length of Day
11h 04m
Waxing Crescent, 5% of the Moon is Illuminated
Jan 13
Waxing Crescent
Jan 18
First Quarter
Jan 26
Full
Feb 3
Last Quarter
Feb 10
New

Hourly Weather History & Observations

Time (EST) Temp. Heat Index Dew Point Humidity Pressure Visibility Wind Dir Wind Speed Gust Speed Precip Events Conditions
6:00 AM 77.0 °F - 73.4 °F 89% 29.98 in - East 9.2 mph - N/A   Clear
7:00 AM 76 °F - 72 °F 86% 29.99 in 6 mi East 11.5 mph - -   Scattered Clouds
7:00 AM 77.0 °F - 73.4 °F 89% 29.98 in 6.2 mi East 11.5 mph - N/A   Partly Cloudy
8:00 AM 77.0 °F - 73.4 °F 89% 29.98 in 6.2 mi East 9.2 mph - N/A   Mostly Cloudy
9:00 AM 80.6 °F 85.4 °F 73.4 °F 79% 30.01 in 6.2 mi East 12.7 mph - N/A   Partly Cloudy
10:00 AM 82.4 °F 88.2 °F 73.4 °F 74% 29.98 in 6.2 mi East 10.4 mph - N/A   Partly Cloudy
11:00 AM 80.6 °F 86.2 °F 75.2 °F 84% 29.98 in 6.2 mi ENE 15.0 mph - N/A   Scattered Clouds
12:00 PM 82.4 °F 88.2 °F 73.4 °F 74% 29.95 in 6.2 mi ESE 9.2 mph - N/A   Mostly Cloudy
1:00 PM 82 °F - 74 °F 70% 29.96 in 6 mi ESE 10.4 mph - -   Mostly Cloudy
1:00 PM 82.4 °F 88.2 °F 73.4 °F 74% 29.95 in 6.2 mi ESE 10.4 mph - N/A   Mostly Cloudy
2:00 PM 82.4 °F 89.5 °F 75.2 °F 79% 29.95 in 6.2 mi SE 8.1 mph - N/A   Scattered Clouds
2:55 PM 84.2 °F 90.9 °F 73.4 °F 70% 29.95 in 6.2 mi ESE 9.2 mph - N/A   Partly Cloudy
3:57 PM 84.2 °F 90.9 °F 73.4 °F 70% 29.98 in 5.0 mi East 8.1 mph - N/A   Mostly Cloudy
4:55 PM 80.6 °F 86.2 °F 75.2 °F 84% 29.98 in 5.0 mi East 9.2 mph - N/A   Scattered Clouds
5:52 PM 78.8 °F - 71.6 °F 78% 30.01 in 5.0 mi East 15.0 mph - N/A   Mostly Cloudy
6:53 PM 78.8 °F - 73.4 °F 83% 30.01 in 4.3 mi ENE 8.1 mph - N/A   Mostly Cloudy
7:00 PM 78 °F - 73 °F 80% 30.01 in 4 mi ENE 8.1 mph - -   Mostly Cloudy
7:55 PM 78.8 °F - 73.4 °F 83% 30.01 in 6.2 mi East 8.1 mph - N/A   Scattered Clouds
8:53 PM 77.0 °F - 75.2 °F 94% 30.01 in - East 6.9 mph - N/A   Clear
9:51 PM 77.0 °F - 75.2 °F 94% 30.01 in - East 8.1 mph - N/A   Clear